Time,TemperatureF,DewpointF,PressureIn,WindDirection,WindDirectionDegrees,WindSpeedMPH,WindSpeedGustMPH,Humidity,HourlyPrecipIn,Conditions,Clouds,dailyrainin,SoftwareType,DateUTC
2014-01-01 00:01:00,41.2,32.2,30.18,SW,225,0.0,0.0,70,0.00,,,0.00,meteohub,2014-01-01 06:01:00,
2014-01-01 00:06:00,41.4,32.0,30.18,SW,228,0.0,0.0,69,0.00,,,0.00,meteohub,2014-01-01 06:06:00,
2014-01-01 00:11:00,41.4,32.0,30.18,SW,228,0.0,4.0,69,0.00,,,0.00,meteohub,2014-01-01 06:11:00,
2014-01-01 00:15:00,41.4,32.0,30.17,SW,228,0.0,4.0,69,0.00,,,0.00,meteohub,2014-01-01 06:15:00,
2014-01-01 00:20:00,40.8,31.5,30.17,SW,228,0.0,4.0,69,0.00,,,0.00,meteohub,2014-01-01 06:20:00,
2014-01-01 00:25:00,40.5,31.1,30.17,SW,228,0.0,0.0,69,0.00,,,0.00,meteohub,2014-01-01 06:25:00,
2014-01-01 00:30:00,40.1,31.1,30.17,SW,228,0.0,0.0,70,0.00,,,0.00,meteohub,2014-01-01 06:30:00,
2014-01-01 00:35:00,39.7,31.1,30.17,SW,228,0.0,0.0,71,0.00,,,0.00,meteohub,2014-01-01 06:35:00,
2014-01-01 00:40:00,39.4,31.1,30.17,SW,228,0.0,0.0,72,0.00,,,0.00,meteohub,2014-01-01 06:40:00,
2014-01-01 00:45:00,39.0,30.7,30.16,SW,228,0.0,0.0,72,0.00,,,0.00,meteohub,2014-01-01 06:45:00,
2014-01-01 00:50:00,38.7,30.4,30.16,SW,228,0.0,0.0,72,0.00,,,0.00,meteohub,2014-01-01 06:50:00,
2014-01-01 00:55:00,38.3,30.7,30.16,SW,228,0.0,0.0,74,0.00,,,0.00,meteohub,2014-01-01 06:55:00,
2014-01-01 01:00:00,38.1,30.9,30.16,SW,228,0.0,0.0,75,0.00,,,0.00,meteohub,2014-01-01 07:00:00,
2014-01-01 01:05:00,37.9,30.7,30.16,SW,228,0.0,0.0,75,0.00,,,0.00,meteohub,2014-01-01 07:05:00,
2014-01-01 01:11:00,37.9,31.1,30.16,SW,228,0.0,0.0,76,0.00,,,0.00,meteohub,2014-01-01 07:11:00,
2014-01-01 01:16:00,37.9,31.1,30.16,SW,228,0.0,0.0,76,0.00,,,0.00,meteohub,2014-01-01 07:16:00,
2014-01-01 01:21:00,37.8,30.9,30.16,SW,228,0.0,0.0,76,0.00,,,0.00,meteohub,2014-01-01 07:21:00,
2014-01-01 01:22:00,37.8,30.9,30.16,SW,228,0.0,0.0,76,0.00,,,0.00,meteohub,2014-01-01 07:22:00,
2014-01-01 01:27:00,37.8,30.9,30.16,SW,228,0.0,0.0,76,0.00,,,0.00,meteohub,2014-01-01 07:27:00,
2014-01-01 01:32:00,37.6,31.1,30.16,SW,228,0.0,0.0,77,0.00,,,0.00,meteohub,2014-01-01 07:32:00,
2014-01-01 01:37:00,37.4,30.9,30.15,SW,228,0.0,0.0,77,0.00,,,0.00,meteohub,2014-01-01 07:37:00,
2014-01-01 01:42:00,37.2,30.7,30.14,SW,228,0.0,0.0,77,0.00,,,0.00,meteohub,2014-01-01 07:42:00,
2014-01-01 01:47:00,37.2,30.7,30.15,SW,228,0.0,0.0,77,0.00,,,0.00,meteohub,2014-01-01 07:47:00,
2014-01-01 01:52:00,37.0,30.6,30.14,SW,228,0.0,0.0,77,0.00,,,0.00,meteohub,2014-01-01 07:52:00,
2014-01-01 01:57:00,37.0,30.7,30.14,SW,228,0.0,0.0,78,0.00,,,0.00,meteohub,2014-01-01 07:57:00,
2014-01-01 02:00:00,37.0,30.7,30.14,SW,228,0.0,0.0,78,0.00,,,0.00,meteohub,2014-01-01 08:00:00,
2014-01-01 02:05:00,36.9,30.6,30.14,SW,228,0.0,0.0,78,0.00,,,0.00,meteohub,2014-01-01 08:05:00,
2014-01-01 02:10:00,36.9,30.6,30.14,SW,228,0.0,0.0,78,0.00,,,0.00,meteohub,2014-01-01 08:10:00,
2014-01-01 02:15:00,36.9,30.6,30.14,SW,228,0.0,0.0,78,0.00,,,0.00,meteohub,2014-01-01 08:15:00,
2014-01-01 02:20:00,36.9,30.6,30.14,SW,227,0.0,0.0,78,0.00,,,0.00,meteohub,2014-01-01 08:20:00,
2014-01-01 02:25:00,36.9,30.6,30.14,SW,227,0.0,0.0,78,0.00,,,0.00,meteohub,2014-01-01 08:25:00,
2014-01-01 02:30:00,37.0,30.7,30.14,SW,227,0.0,0.0,78,0.00,,,0.00,meteohub,2014-01-01 08:30:00,
2014-01-01 02:35:00,37.2,30.9,30.13,SW,228,0.0,0.0,78,0.00,,,0.00,meteohub,2014-01-01 08:35:00,
2014-01-01 02:40:00,37.6,31.1,30.13,SW,232,0.0,0.0,77,0.00,,,0.00,meteohub,2014-01-01 08:40:00,
2014-01-01 02:45:00,37.8,30.9,30.13,SW,233,0.0,5.0,76,0.00,,,0.00,meteohub,2014-01-01 08:45:00,
2014-01-01 02:50:00,37.9,31.1,30.13,SW,230,0.0,5.0,76,0.00,,,0.00,meteohub,2014-01-01 08:50:00,
2014-01-01 02:55:00,38.5,31.6,30.13,SW,215,3.0,7.0,76,0.00,,,0.00,meteohub,2014-01-01 08:55:00,
2014-01-01 03:00:00,38.8,31.6,30.13,SW,228,0.0,8.0,75,0.00,,,0.00,meteohub,2014-01-01 09:00:00,
2014-01-01 03:05:00,39.4,31.8,30.13,WSW,241,2.0,8.0,74,0.00,,,0.00,meteohub,2014-01-01 09:05:00,
2014-01-01 03:10:00,39.6,31.6,30.12,WSW,242,0.0,8.0,73,0.00,,,0.00,meteohub,2014-01-01 09:10:00,
2014-01-01 03:15:00,39.9,32.0,30.12,SW,234,5.0,7.0,73,0.00,,,0.00,meteohub,2014-01-01 09:15:00,
2014-01-01 03:20:00,39.9,31.6,30.13,WSW,245,4.0,8.0,72,0.00,,,0.00,meteohub,2014-01-01 09:20:00,
2014-01-01 03:25:00,39.9,31.6,30.12,WSW,248,4.0,8.0,72,0.00,,,0.00,meteohub,2014-01-01 09:25:00,
2014-01-01 03:30:00,39.9,31.6,30.12,WSW,246,0.0,8.0,72,0.00,,,0.00,meteohub,2014-01-01 09:30:00,
2014-01-01 03:35:00,39.7,31.5,30.12,WSW,244,0.0,7.0,72,0.00,,,0.00,meteohub,2014-01-01 09:35:00,
2014-01-01 03:40:00,39.7,31.5,30.12,WSW,245,0.0,7.0,72,0.00,,,0.00,meteohub,2014-01-01 09:40:00,
2014-01-01 03:45:00,39.6,31.6,30.11,WSW,237,4.0,5.0,73,0.00,,,0.00,meteohub,2014-01-01 09:45:00,
2014-01-01 03:50:00,39.6,31.6,30.12,SW,236,4.0,5.0,73,0.00,,,0.00,meteohub,2014-01-01 09:50:00,
2014-01-01 03:55:00,39.6,31.6,30.11,SW,236,0.0,6.0,73,0.00,,,0.00,meteohub,2014-01-01 09:55:00,
2014-01-01 04:00:00,39.6,31.6,30.11,WSW,242,0.0,6.0,73,0.00,,,0.00,meteohub,2014-01-01 10:00:00,
2014-01-01 04:06:00,39.6,31.6,30.11,WSW,239,0.0,6.0,73,0.00,,,0.00,meteohub,2014-01-01 10:06:00,
2014-01-01 04:11:00,39.4,31.5,30.11,WSW,239,0.0,6.0,73,0.00,,,0.00,meteohub,2014-01-01 10:11:00,
2014-01-01 04:16:00,39.2,31.6,30.11,SW,228,3.0,5.0,74,0.00,,,0.00,meteohub,2014-01-01 10:16:00,
2014-01-01 04:21:00,39.4,31.8,30.11,SW,229,0.0,3.0,74,0.00,,,0.00,meteohub,2014-01-01 10:21:00,
2014-01-01 04:26:00,39.4,31.8,30.11,SW,236,0.0,5.0,74,0.00,,,0.00,meteohub,2014-01-01 10:26:00,
2014-01-01 04:31:00,39.4,31.8,30.11,SW,236,0.0,5.0,74,0.00,,,0.00,meteohub,2014-01-01 10:31:00,
2014-01-01 04:36:00,39.4,31.8,30.10,SW,236,2.0,3.0,74,0.00,,,0.00,meteohub,2014-01-01 10:36:00,
2014-01-01 04:41:00,39.4,31.8,30.10,SW,234,6.0,6.0,74,0.00,,,0.00,meteohub,2014-01-01 10:41:00,
2014-01-01 04:46:00,39.4,31.8,30.10,WSW,242,0.0,7.0,74,0.00,,,0.00,meteohub,2014-01-01 10:46:00,
2014-01-01 04:51:00,39.2,31.6,30.10,WSW,242,0.0,7.0,74,0.00,,,0.00,meteohub,2014-01-01 10:51:00,
2014-01-01 04:56:00,39.0,31.8,30.10,WSW,242,0.0,7.0,75,0.00,,,0.00,meteohub,2014-01-01 10:56:00,
2014-01-01 05:01:00,39.0,31.8,30.09,WSW,242,3.0,7.0,75,0.00,,,0.00,meteohub,2014-01-01 11:01:00,
2014-01-01 05:06:00,39.0,31.8,30.10,SW,234,3.0,6.0,75,0.00,,,0.00,meteohub,2014-01-01 11:06:00,
2014-01-01 05:11:00,39.0,31.8,30.10,SW,236,0.0,6.0,75,0.00,,,0.00,meteohub,2014-01-01 11:11:00,
2014-01-01 05:16:00,39.0,31.8,30.10,SW,236,0.0,6.0,75,0.00,,,0.00,meteohub,2014-01-01 11:16:00,
2014-01-01 05:21:00,38.8,31.6,30.10,SW,236,0.0,6.0,75,0.00,,,0.00,meteohub,2014-01-01 11:21:00,
2014-01-01 05:26:00,38.7,31.8,30.09,SW,229,7.0,7.0,76,0.00,,,0.00,meteohub,2014-01-01 11:26:00,
2014-01-01 05:31:00,38.8,32.0,30.09,SW,224,6.0,8.0,76,0.00,,,0.00,meteohub,2014-01-01 11:31:00,
2014-01-01 05:36:00,38.8,32.0,30.09,SW,227,5.0,8.0,76,0.00,,,0.00,meteohub,2014-01-01 11:36:00,
2014-01-01 05:41:00,38.8,32.0,30.09,SW,230,2.0,10.0,76,0.00,,,0.00,meteohub,2014-01-01 11:41:00,
2014-01-01 05:46:00,38.8,32.0,30.09,SW,234,5.0,10.0,76,0.00,,,0.00,meteohub,2014-01-01 11:46:00,
2014-01-01 05:51:00,38.7,31.8,30.09,WSW,240,4.0,11.0,76,0.00,,,0.00,meteohub,2014-01-01 11:51:00,
2014-01-01 05:56:00,38.7,31.8,30.09,WSW,252,3.0,11.0,76,0.00,,,0.00,meteohub,2014-01-01 11:56:00,
2014-01-01 06:01:00,38.5,31.8,30.09,WSW,246,8.0,10.0,77,0.00,,,0.00,meteohub,2014-01-01 12:01:00,
2014-01-01 06:06:00,38.3,31.6,30.09,SW,225,2.0,10.0,77,0.00,,,0.00,meteohub,2014-01-01 12:06:00,
2014-01-01 06:11:00,38.3,31.6,30.09,SW,229,8.0,10.0,77,0.00,,,0.00,meteohub,2014-01-01 12:11:00,
2014-01-01 06:16:00,38.3,31.6,30.09,SW,223,3.0,10.0,77,0.00,,,0.00,meteohub,2014-01-01 12:16:00,
2014-01-01 06:21:00,38.1,31.6,30.09,WSW,242,4.0,10.0,77,0.00,,,0.00,meteohub,2014-01-01 12:21:00,
2014-01-01 06:26:00,37.9,31.5,30.09,SW,234,0.0,10.0,77,0.00,,,0.00,meteohub,2014-01-01 12:26:00,
2014-01-01 06:31:00,37.8,31.5,30.08,WSW,240,0.0,8.0,78,0.00,,,0.00,meteohub,2014-01-01 12:31:00,
2014-01-01 06:36:00,37.6,31.3,30.08,SW,232,3.0,8.0,78,0.00,,,0.00,meteohub,2014-01-01 12:36:00,
2014-01-01 06:41:00,37.6,31.6,30.08,SW,229,0.0,7.0,79,0.00,,,0.00,meteohub,2014-01-01 12:41:00,
2014-01-01 06:46:00,37.4,31.5,30.08,SW,225,0.0,7.0,79,0.00,,,0.00,meteohub,2014-01-01 12:46:00,
2014-01-01 06:51:00,37.6,31.6,30.08,SW,227,0.0,7.0,79,0.00,,,0.00,meteohub,2014-01-01 12:51:00,
2014-01-01 06:56:00,37.6,31.6,30.08,SW,227,0.0,7.0,79,0.00,,,0.00,meteohub,2014-01-01 12:56:00,
2014-01-01 07:01:00,37.6,31.6,30.08,SW,227,0.0,7.0,79,0.00,,,0.00,meteohub,2014-01-01 13:01:00,
2014-01-01 07:06:00,37.6,31.3,30.09,SW,227,0.0,7.0,78,0.00,,,0.00,meteohub,2014-01-01 13:06:00,
2014-01-01 07:11:00,37.2,30.9,30.09,SW,227,0.0,0.0,78,0.00,,,0.00,meteohub,2014-01-01 13:11:00,
2014-01-01 07:16:00,37.0,31.1,30.09,SW,227,0.0,0.0,79,0.00,,,0.00,meteohub,2014-01-01 13:16:00,
2014-01-01 07:21:00,36.9,30.9,30.09,SW,227,0.0,0.0,79,0.00,,,0.00,meteohub,2014-01-01 13:21:00,
2014-01-01 07:26:00,36.9,31.3,30.09,SW,227,0.0,0.0,80,0.00,,,0.00,meteohub,2014-01-01 13:26:00,
2014-01-01 07:31:00,36.7,31.1,30.09,SW,227,0.0,0.0,80,0.00,,,0.00,meteohub,2014-01-01 13:31:00,
2014-01-01 07:36:00,36.7,31.1,30.09,SW,227,0.0,0.0,80,0.00,,,0.00,meteohub,2014-01-01 13:36:00,
2014-01-01 07:41:00,36.5,30.9,30.09,SW,226,0.0,0.0,80,0.00,,,0.00,meteohub,2014-01-01 13:41:00,
2014-01-01 07:46:00,36.3,30.7,30.09,SW,226,0.0,0.0,80,0.00,,,0.00,meteohub,2014-01-01 13:46:00,
2014-01-01 07:51:00,36.1,30.9,30.09,SW,226,0.0,0.0,81,0.00,,,0.00,meteohub,2014-01-01 13:51:00,
2014-01-01 07:56:00,36.1,30.9,30.09,SW,226,0.0,0.0,81,0.00,,,0.00,meteohub,2014-01-01 13:56:00,
2014-01-01 08:01:00,36.1,30.9,30.09,SW,226,0.0,0.0,81,0.00,,,0.00,meteohub,2014-01-01 14:01:00,
2014-01-01 08:06:00,36.1,30.9,30.09,SW,226,0.0,0.0,81,0.00,,,0.00,meteohub,2014-01-01 14:06:00,
2014-01-01 08:11:00,36.1,30.9,30.09,SW,226,0.0,0.0,81,0.00,,,0.00,meteohub,2014-01-01 14:11:00,
2014-01-01 08:16:00,36.3,31.1,30.09,SW,226,0.0,0.0,81,0.00,,,0.00,meteohub,2014-01-01 14:16:00,
2014-01-01 08:21:00,36.7,31.5,30.09,SW,226,0.0,0.0,81,0.00,,,0.00,meteohub,2014-01-01 14:21:00,
2014-01-01 08:26:00,37.0,31.8,30.09,SW,234,0.0,0.0,81,0.00,,,0.00,meteohub,2014-01-01 14:26:00,
2014-01-01 08:31:00,37.4,31.8,30.09,SW,229,2.0,3.0,80,0.00,,,0.00,meteohub,2014-01-01 14:31:00,
2014-01-01 08:36:00,37.8,32.2,30.09,WSW,242,3.0,3.0,80,0.00,,,0.00,meteohub,2014-01-01 14:36:00,
2014-01-01 08:41:00,38.1,32.2,30.09,SW,228,4.0,7.0,79,0.00,,,0.00,meteohub,2014-01-01 14:41:00,
2014-01-01 08:47:00,38.5,32.5,30.09,SW,234,7.0,7.0,79,0.00,,,0.00,meteohub,2014-01-01 14:47:00,
2014-01-01 08:52:00,38.8,32.5,30.10,SW,235,1.0,9.0,78,0.00,,,0.00,meteohub,2014-01-01 14:52:00,
2014-01-01 08:57:00,39.4,33.1,30.09,SW,228,4.0,9.0,78,0.00,,,0.00,meteohub,2014-01-01 14:57:00,
2014-01-01 09:02:00,39.9,33.3,30.09,SW,233,6.0,8.0,77,0.00,,,0.00,meteohub,2014-01-01 15:02:00,
2014-01-01 09:07:00,40.6,33.6,30.09,SW,232,3.0,8.0,76,0.00,,,0.00,meteohub,2014-01-01 15:07:00,
2014-01-01 09:12:00,41.2,33.4,30.10,WSW,246,3.0,15.0,74,0.00,,,0.00,meteohub,2014-01-01 15:12:00,
2014-01-01 09:17:00,41.7,33.6,30.09,SW,234,10.0,15.0,73,0.00,,,0.00,meteohub,2014-01-01 15:17:00,
2014-01-01 09:22:00,42.3,33.8,30.09,WSW,238,13.0,15.0,72,0.00,,,0.00,meteohub,2014-01-01 15:22:00,
2014-01-01 09:27:00,42.6,33.8,30.09,SW,223,6.0,15.0,71,0.00,,,0.00,meteohub,2014-01-01 15:27:00,
2014-01-01 09:32:00,43.0,33.8,30.09,SW,226,7.0,15.0,70,0.00,,,0.00,meteohub,2014-01-01 15:32:00,
2014-01-01 09:37:00,43.3,34.2,30.09,SW,224,12.0,15.0,70,0.00,,,0.00,meteohub,2014-01-01 15:37:00,
2014-01-01 09:42:00,43.7,34.2,30.10,SW,230,6.0,20.0,69,0.00,,,0.00,meteohub,2014-01-01 15:42:00,
2014-01-01 09:47:00,44.1,34.5,30.10,WSW,242,8.0,20.0,69,0.00,,,0.00,meteohub,2014-01-01 15:47:00,
2014-01-01 09:52:00,44.2,34.7,30.10,SW,231,6.0,17.0,69,0.00,,,0.00,meteohub,2014-01-01 15:52:00,
2014-01-01 09:57:00,44.6,35.1,30.10,SW,219,8.0,17.0,69,0.00,,,0.00,meteohub,2014-01-01 15:57:00,
2014-01-01 10:02:00,44.8,34.9,30.09,SW,226,8.0,13.0,68,0.00,,,0.00,meteohub,2014-01-01 16:02:00,
2014-01-01 10:07:00,45.1,35.2,30.09,WSW,251,7.0,13.0,68,0.00,,,0.00,meteohub,2014-01-01 16:07:00,
2014-01-01 10:12:00,45.7,35.4,30.09,SW,232,13.0,17.0,67,0.00,,,0.00,meteohub,2014-01-01 16:12:00,
2014-01-01 10:17:00,46.2,36.0,30.09,SW,225,7.0,17.0,67,0.00,,,0.00,meteohub,2014-01-01 16:17:00,
2014-01-01 10:22:00,46.8,36.0,30.09,SW,223,9.0,19.0,66,0.00,,,0.00,meteohub,2014-01-01 16:22:00,
2014-01-01 10:27:00,47.5,36.3,30.09,SSW,213,9.0,19.0,65,0.00,,,0.00,meteohub,2014-01-01 16:27:00,
2014-01-01 10:32:00,48.0,36.5,30.09,SW,233,17.0,19.0,64,0.00,,,0.00,meteohub,2014-01-01 16:32:00,
2014-01-01 10:37:00,48.6,36.5,30.08,WSW,238,11.0,19.0,63,0.00,,,0.00,meteohub,2014-01-01 16:37:00,
2014-01-01 10:42:00,48.9,36.5,30.08,SW,220,9.0,24.0,62,0.00,,,0.00,meteohub,2014-01-01 16:42:00,
2014-01-01 10:47:00,49.6,37.2,30.08,WSW,237,15.0,24.0,62,0.00,,,0.00,meteohub,2014-01-01 16:47:00,
2014-01-01 10:52:00,50.2,37.2,30.08,SW,227,14.0,21.0,61,0.00,,,0.00,meteohub,2014-01-01 16:52:00,
2014-01-01 10:57:00,50.5,37.6,30.07,SW,225,12.0,21.0,61,0.00,,,0.00,meteohub,2014-01-01 16:57:00,
2014-01-01 11:02:00,51.3,37.8,30.07,SW,232,8.0,21.0,60,0.00,,,0.00,meteohub,2014-01-01 17:02:00,
2014-01-01 11:07:00,51.8,37.9,30.07,SW,227,12.0,19.0,59,0.00,,,0.00,meteohub,2014-01-01 17:07:00,
2014-01-01 11:12:00,52.3,38.5,30.07,SW,227,4.0,19.0,59,0.00,,,0.00,meteohub,2014-01-01 17:12:00,
2014-01-01 11:17:00,52.7,38.3,30.07,WSW,242,3.0,21.0,58,0.00,,,0.00,meteohub,2014-01-01 17:17:00,
2014-01-01 11:22:00,53.2,38.8,30.07,SSW,198,3.0,21.0,58,0.00,,,0.00,meteohub,2014-01-01 17:22:00,
2014-01-01 11:27:00,53.8,38.8,30.06,WSW,245,13.0,17.0,57,0.00,,,0.00,meteohub,2014-01-01 17:27:00,
2014-01-01 11:32:00,54.0,39.0,30.06,SW,227,8.0,17.0,57,0.00,,,0.00,meteohub,2014-01-01 17:32:00,
2014-01-01 11:37:00,54.3,39.0,30.06,WSW,254,5.0,20.0,56,0.00,,,0.00,meteohub,2014-01-01 17:37:00,
2014-01-01 11:42:00,54.9,39.4,30.05,SW,224,5.0,20.0,56,0.00,,,0.00,meteohub,2014-01-01 17:42:00,
2014-01-01 11:47:00,55.4,39.6,30.05,WSW,254,12.0,20.0,55,0.00,,,0.00,meteohub,2014-01-01 17:47:00,
2014-01-01 11:52:00,55.8,39.4,30.04,SW,215,13.0,20.0,54,0.00,,,0.00,meteohub,2014-01-01 17:52:00,
2014-01-01 11:57:00,56.1,39.7,30.04,SW,234,5.0,17.0,54,0.00,,,0.00,meteohub,2014-01-01 17:57:00,
2014-01-01 12:02:00,56.7,40.3,30.04,WSW,246,5.0,17.0,54,0.00,,,0.00,meteohub,2014-01-01 18:02:00,
2014-01-01 12:07:00,57.2,40.3,30.04,SW,234,8.0,18.0,53,0.00,,,0.00,meteohub,2014-01-01 18:07:00,
2014-01-01 12:12:00,57.7,40.6,30.04,SW,223,10.0,18.0,53,0.00,,,0.00,meteohub,2014-01-01 18:12:00,
2014-01-01 12:17:00,58.3,40.8,30.03,SW,218,9.0,17.0,52,0.00,,,0.00,meteohub,2014-01-01 18:17:00,
2014-01-01 12:22:00,58.6,40.6,30.02,SW,219,10.0,17.0,51,0.00,,,0.00,meteohub,2014-01-01 18:22:00,
2014-01-01 12:27:00,59.2,40.6,30.02,WSW,246,18.0,22.0,50,0.00,,,0.00,meteohub,2014-01-01 18:27:00,
2014-01-01 12:32:00,59.4,40.6,30.02,SSW,207,6.0,22.0,50,0.00,,,0.00,meteohub,2014-01-01 18:32:00,
2014-01-01 12:37:00,59.7,40.5,30.01,SW,221,14.0,24.0,49,0.00,,,0.00,meteohub,2014-01-01 18:37:00,
2014-01-01 12:42:00,60.3,41.0,30.01,WSW,242,12.0,24.0,49,0.00,,,0.00,meteohub,2014-01-01 18:42:00,
2014-01-01 12:47:00,60.6,40.8,30.01,WSW,246,19.0,21.0,48,0.00,,,0.00,meteohub,2014-01-01 18:47:00,
2014-01-01 12:52:00,61.2,40.8,30.00,SW,215,12.0,21.0,47,0.00,,,0.00,meteohub,2014-01-01 18:52:00,
2014-01-01 12:57:00,61.3,41.0,30.00,SW,235,7.0,21.0,47,0.00,,,0.00,meteohub,2014-01-01 18:57:00,
2014-01-01 13:02:00,61.9,40.8,29.99,SW,232,8.0,21.0,46,0.00,,,0.00,meteohub,2014-01-01 19:02:00,
2014-01-01 13:07:00,62.1,41.0,29.99,SW,236,19.0,23.0,46,0.00,,,0.00,meteohub,2014-01-01 19:07:00,
2014-01-01 13:12:00,62.4,40.8,29.99,West,271,2.0,23.0,45,0.00,,,0.00,meteohub,2014-01-01 19:12:00,
2014-01-01 13:17:00,62.8,40.5,29.98,WSW,257,1.0,23.0,44,0.00,,,0.00,meteohub,2014-01-01 19:17:00,
2014-01-01 13:22:00,63.1,40.8,29.98,South,177,10.0,23.0,44,0.00,,,0.00,meteohub,2014-01-01 19:22:00,
2014-01-01 13:27:00,63.7,40.8,29.97,SW,231,15.0,22.0,43,0.00,,,0.00,meteohub,2014-01-01 19:27:00,
2014-01-01 13:32:00,63.9,40.3,29.97,SW,226,7.0,22.0,42,0.00,,,0.00,meteohub,2014-01-01 19:32:00,
2014-01-01 13:37:00,64.2,40.6,29.96,South,184,5.0,24.0,42,0.00,,,0.00,meteohub,2014-01-01 19:37:00,
2014-01-01 13:42:00,64.8,39.9,29.96,SW,219,10.0,24.0,40,0.00,,,0.00,meteohub,2014-01-01 19:42:00,
2014-01-01 13:47:00,64.9,40.1,29.96,West,259,10.0,28.0,40,0.00,,,0.00,meteohub,2014-01-01 19:47:00,
2014-01-01 13:52:00,65.1,40.3,29.96,WSW,238,14.0,28.0,40,0.00,,,0.00,meteohub,2014-01-01 19:52:00,
2014-01-01 13:57:00,65.1,40.3,29.95,WSW,239,10.0,28.0,40,0.00,,,0.00,meteohub,2014-01-01 19:57:00,
2014-01-01 14:02:00,65.5,40.5,29.95,SW,234,11.0,28.0,40,0.00,,,0.00,meteohub,2014-01-01 20:02:00,
2014-01-01 14:07:00,65.5,40.5,29.95,SW,215,9.0,22.0,40,0.00,,,0.00,meteohub,2014-01-01 20:07:00,
2014-01-01 14:12:00,65.7,40.6,29.95,WSW,253,8.0,22.0,40,0.00,,,0.00,meteohub,2014-01-01 20:12:00,
2014-01-01 14:17:00,66.0,41.0,29.94,SSW,202,8.0,22.0,40,0.00,,,0.00,meteohub,2014-01-01 20:17:00,
2014-01-01 14:22:00,66.4,40.6,29.94,SSW,193,6.0,22.0,39,0.00,,,0.00,meteohub,2014-01-01 20:22:00,
2014-01-01 14:27:00,66.6,40.1,29.94,West,270,13.0,17.0,38,0.00,,,0.00,meteohub,2014-01-01 20:27:00,
2014-01-01 14:32:00,66.6,40.8,29.94,SW,231,7.0,17.0,39,0.00,,,0.00,meteohub,2014-01-01 20:32:00,
2014-01-01 14:37:00,66.7,41.0,29.94,SW,221,9.0,22.0,39,0.00,,,0.00,meteohub,2014-01-01 20:37:00,
2014-01-01 14:42:00,66.9,40.5,29.94,WNW,295,9.0,22.0,38,0.00,,,0.00,meteohub,2014-01-01 20:42:00,
2014-01-01 14:47:00,67.1,40.6,29.94,SW,231,5.0,21.0,38,0.00,,,0.00,meteohub,2014-01-01 20:47:00,
2014-01-01 14:52:00,67.5,41.0,29.93,South,190,6.0,21.0,38,0.00,,,0.00,meteohub,2014-01-01 20:52:00,
2014-01-01 14:57:00,67.5,41.0,29.93,SSW,200,8.0,19.0,38,0.00,,,0.00,meteohub,2014-01-01 20:57:00,
2014-01-01 15:02:00,67.5,41.0,29.93,SW,218,14.0,19.0,38,0.00,,,0.00,meteohub,2014-01-01 21:02:00,
2014-01-01 15:07:00,67.5,41.0,29.93,SW,236,12.0,21.0,38,0.00,,,0.00,meteohub,2014-01-01 21:07:00,
2014-01-01 15:12:00,67.5,40.3,29.94,SW,232,10.0,21.0,37,0.00,,,0.00,meteohub,2014-01-01 21:12:00,
2014-01-01 15:17:00,67.6,41.2,29.93,SW,225,3.0,21.0,38,0.00,,,0.00,meteohub,2014-01-01 21:17:00,
2014-01-01 15:22:00,67.6,41.2,29.93,SW,219,8.0,21.0,38,0.00,,,0.00,meteohub,2014-01-01 21:22:00,
2014-01-01 15:27:00,67.8,41.4,29.93,SW,229,15.0,25.0,38,0.00,,,0.00,meteohub,2014-01-01 21:27:00,
2014-01-01 15:32:00,67.8,40.6,29.93,SW,218,8.0,25.0,37,0.00,,,0.00,meteohub,2014-01-01 21:32:00,
2014-01-01 15:37:00,68.0,40.8,29.93,WSW,247,10.0,25.0,37,0.00,,,0.00,meteohub,2014-01-01 21:37:00,
2014-01-01 15:42:00,68.2,41.5,29.93,SW,218,7.0,25.0,38,0.00,,,0.00,meteohub,2014-01-01 21:42:00,
2014-01-01 15:47:00,68.4,41.0,29.93,SW,217,2.0,19.0,37,0.00,,,0.00,meteohub,2014-01-01 21:47:00,
2014-01-01 15:52:00,68.4,41.0,29.93,SSW,211,5.0,19.0,37,0.00,,,0.00,meteohub,2014-01-01 21:52:00,
2014-01-01 15:57:00,68.4,41.0,29.92,WSW,242,5.0,18.0,37,0.00,,,0.00,meteohub,2014-01-01 21:57:00,
2014-01-01 16:02:00,68.4,40.3,29.93,SSW,199,10.0,18.0,36,0.00,,,0.00,meteohub,2014-01-01 22:02:00,
2014-01-01 16:07:00,68.4,41.0,29.93,SW,219,11.0,20.0,37,0.00,,,0.00,meteohub,2014-01-01 22:07:00,
2014-01-01 16:12:00,68.4,41.0,29.92,SW,223,10.0,20.0,37,0.00,,,0.00,meteohub,2014-01-01 22:12:00,
2014-01-01 16:17:00,68.4,40.3,29.93,SW,232,11.0,20.0,36,0.00,,,0.00,meteohub,2014-01-01 22:17:00,
2014-01-01 16:22:00,68.4,41.0,29.93,SSW,209,11.0,20.0,37,0.00,,,0.00,meteohub,2014-01-01 22:22:00,
2014-01-01 16:27:00,68.4,41.0,29.93,South,186,9.0,19.0,37,0.00,,,0.00,meteohub,2014-01-01 22:27:00,
2014-01-01 16:32:00,68.2,41.0,29.93,SW,228,11.0,24.0,37,0.00,,,0.00,meteohub,2014-01-01 22:32:00,
2014-01-01 16:38:00,68.2,41.0,29.93,WSW,237,6.0,24.0,37,0.00,,,0.00,meteohub,2014-01-01 22:38:00,
2014-01-01 16:43:00,68.2,41.0,29.94,South,181,7.0,24.0,37,0.00,,,0.00,meteohub,2014-01-01 22:43:00,
2014-01-01 16:48:00,68.4,41.0,29.94,SW,232,8.0,24.0,37,0.00,,,0.00,meteohub,2014-01-01 22:48:00,
2014-01-01 16:53:00,68.2,41.0,29.94,SSW,200,7.0,18.0,37,0.00,,,0.00,meteohub,2014-01-01 22:53:00,
2014-01-01 16:58:00,68.2,41.0,29.94,SW,227,1.0,18.0,37,0.00,,,0.00,meteohub,2014-01-01 22:58:00,
2014-01-01 17:03:00,68.2,41.0,29.95,SW,227,1.0,15.0,37,0.00,,,0.00,meteohub,2014-01-01 23:03:00,
2014-01-01 17:08:00,67.8,40.6,29.96,WSW,238,1.0,15.0,37,0.00,,,0.00,meteohub,2014-01-01 23:08:00,
2014-01-01 17:13:00,67.6,41.2,29.96,WSW,242,4.0,15.0,38,0.00,,,0.00,meteohub,2014-01-01 23:13:00,
2014-01-01 17:18:00,67.5,41.0,29.95,SW,221,7.0,15.0,38,0.00,,,0.00,meteohub,2014-01-01 23:18:00,
2014-01-01 17:23:00,67.3,41.5,29.96,SW,225,8.0,14.0,39,0.00,,,0.00,meteohub,2014-01-01 23:23:00,
2014-01-01 17:28:00,66.7,41.0,29.96,SW,232,3.0,14.0,39,0.00,,,0.00,meteohub,2014-01-01 23:28:00,
2014-01-01 17:33:00,66.4,40.6,29.95,SW,234,4.0,9.0,39,0.00,,,0.00,meteohub,2014-01-01 23:33:00,
2014-01-01 17:38:00,65.7,40.6,29.96,SW,235,3.0,9.0,40,0.00,,,0.00,meteohub,2014-01-01 23:38:00,
2014-01-01 17:43:00,65.3,41.0,29.96,SW,234,4.0,11.0,41,0.00,,,0.00,meteohub,2014-01-01 23:43:00,
2014-01-01 17:48:00,64.8,40.5,29.96,SW,233,0.0,11.0,41,0.00,,,0.00,meteohub,2014-01-01 23:48:00,
2014-01-01 17:53:00,64.2,40.6,29.96,SW,232,2.0,8.0,42,0.00,,,0.00,meteohub,2014-01-01 23:53:00,
2014-01-01 17:58:00,63.7,40.8,29.95,SW,219,0.0,8.0,43,0.00,,,0.00,meteohub,2014-01-01 23:58:00,
2014-01-01 18:03:00,63.1,40.8,29.95,SW,227,0.0,8.0,44,0.00,,,0.00,meteohub,2014-01-02 00:03:00,
2014-01-01 18:08:00,62.6,40.5,29.96,SW,233,0.0,6.0,44,0.00,,,0.00,meteohub,2014-01-02 00:08:00,
2014-01-01 18:13:00,62.1,40.5,29.96,SW,221,0.0,6.0,45,0.00,,,0.00,meteohub,2014-01-02 00:13:00,
2014-01-01 18:18:00,61.5,39.9,29.96,SW,229,1.0,5.0,45,0.00,,,0.00,meteohub,2014-01-02 00:18:00,
2014-01-01 18:23:00,61.3,40.5,29.96,SW,234,0.0,5.0,46,0.00,,,0.00,meteohub,2014-01-02 00:23:00,
2014-01-01 18:28:00,61.0,40.1,29.96,SW,234,0.0,5.0,46,0.00,,,0.00,meteohub,2014-01-02 00:28:00,
2014-01-01 18:33:00,60.8,40.5,29.96,WSW,241,1.0,6.0,47,0.00,,,0.00,meteohub,2014-01-02 00:33:00,
2014-01-01 18:38:00,60.6,40.3,29.96,SW,233,0.0,6.0,47,0.00,,,0.00,meteohub,2014-01-02 00:38:00,
2014-01-01 18:43:00,60.4,40.1,29.97,WSW,241,0.0,8.0,47,0.00,,,0.00,meteohub,2014-01-02 00:43:00,
2014-01-01 18:48:00,60.3,40.5,29.97,SW,224,3.0,8.0,48,0.00,,,0.00,meteohub,2014-01-02 00:48:00,
2014-01-01 18:53:00,60.1,40.3,29.98,SW,232,5.0,11.0,48,0.00,,,0.00,meteohub,2014-01-02 00:53:00,
2014-01-01 18:58:00,59.7,39.9,29.98,WSW,244,4.0,11.0,48,0.00,,,0.00,meteohub,2014-01-02 00:58:00,
2014-01-01 19:03:00,59.2,40.1,29.99,WSW,240,5.0,11.0,49,0.00,,,0.00,meteohub,2014-01-02 01:03:00,
2014-01-01 19:08:00,58.8,40.3,29.99,SW,231,6.0,11.0,50,0.00,,,0.00,meteohub,2014-01-02 01:08:00,
2014-01-01 19:13:00,58.5,40.5,29.99,SW,217,4.0,11.0,51,0.00,,,0.00,meteohub,2014-01-02 01:13:00,
2014-01-01 19:18:00,57.9,39.9,29.99,SW,236,5.0,11.0,51,0.00,,,0.00,meteohub,2014-01-02 01:18:00,
2014-01-01 19:23:00,57.6,40.1,29.99,SW,232,0.0,11.0,52,0.00,,,0.00,meteohub,2014-01-02 01:23:00,
2014-01-01 19:28:00,57.2,40.3,29.99,SW,232,6.0,11.0,53,0.00,,,0.00,meteohub,2014-01-02 01:28:00,
2014-01-01 19:33:00,56.7,40.3,30.00,WSW,254,2.0,11.0,54,0.00,,,0.00,meteohub,2014-01-02 01:33:00,
2014-01-01 19:38:00,56.1,39.2,30.05,NNW,344,12.0,12.0,53,0.00,,,0.00,meteohub,2014-01-02 01:38:00,
2014-01-01 19:44:00,57.2,36.0,30.05,NNW,331,8.0,25.0,45,0.00,,,0.00,meteohub,2014-01-02 01:44:00,
2014-01-01 19:49:00,58.1,33.3,30.06,NNE,21,6.0,25.0,39,0.00,,,0.00,meteohub,2014-01-02 01:49:00,
2014-01-01 19:54:00,58.6,32.4,30.06,NW,305,13.0,25.0,37,0.00,,,0.00,meteohub,2014-01-02 01:54:00,
2014-01-01 19:59:00,58.8,31.3,30.07,NNW,335,5.0,20.0,35,0.00,,,0.00,meteohub,2014-01-02 01:59:00,
2014-01-01 20:04:00,58.6,31.1,30.07,NW,319,15.0,20.0,35,0.00,,,0.00,meteohub,2014-01-02 02:04:00,
2014-01-01 20:09:00,58.5,30.9,30.08,NW,319,13.0,23.0,35,0.00,,,0.00,meteohub,2014-01-02 02:09:00,
2014-01-01 20:14:00,57.7,30.2,30.09,NNE,19,16.0,24.0,35,0.00,,,0.00,meteohub,2014-01-02 02:14:00,
2014-01-01 20:19:00,57.0,29.7,30.09,NE,37,13.0,26.0,35,0.00,,,0.00,meteohub,2014-01-02 02:19:00,
2014-01-01 20:24:00,56.5,29.8,30.09,North,5,16.0,26.0,36,0.00,,,0.00,meteohub,2014-01-02 02:24:00,
2014-01-01 20:29:00,55.9,29.3,30.09,WNW,284,13.0,26.0,36,0.00,,,0.00,meteohub,2014-01-02 02:29:00,
2014-01-01 20:34:00,55.6,29.7,30.10,North,5,11.0,25.0,37,0.00,,,0.00,meteohub,2014-01-02 02:34:00,
2014-01-01 20:39:00,55.0,29.8,30.10,NNW,348,13.0,25.0,38,0.00,,,0.00,meteohub,2014-01-02 02:39:00,
2014-01-01 20:44:00,54.9,29.7,30.11,NNW,346,12.0,21.0,38,0.00,,,0.00,meteohub,2014-01-02 02:44:00,
2014-01-01 20:49:00,54.3,29.8,30.11,NNW,329,6.0,21.0,39,0.00,,,0.00,meteohub,2014-01-02 02:49:00,
2014-01-01 20:54:00,54.0,30.2,30.11,NNW,343,11.0,21.0,40,0.00,,,0.00,meteohub,2014-01-02 02:54:00,
2014-01-01 20:59:00,53.4,29.7,30.12,NNE,24,7.0,21.0,40,0.00,,,0.00,meteohub,2014-01-02 02:59:00,
2014-01-01 21:04:00,53.2,30.7,30.12,North,350,6.0,17.0,42,0.00,,,0.00,meteohub,2014-01-02 03:04:00,
2014-01-01 21:09:00,52.7,30.7,30.12,NNW,348,7.0,18.0,43,0.00,,,0.00,meteohub,2014-01-02 03:09:00,
2014-01-01 21:14:00,52.3,31.1,30.13,NNE,12,10.0,18.0,44,0.00,,,0.00,meteohub,2014-01-02 03:14:00,
2014-01-01 21:19:00,52.0,31.3,30.13,NNW,345,13.0,18.0,45,0.00,,,0.00,meteohub,2014-01-02 03:19:00,
2014-01-01 21:24:00,51.4,31.3,30.13,North,355,8.0,21.0,46,0.00,,,0.00,meteohub,2014-01-02 03:24:00,
2014-01-01 21:29:00,51.3,31.1,30.13,NE,35,6.0,21.0,46,0.00,,,0.00,meteohub,2014-01-02 03:29:00,
2014-01-01 21:34:00,50.9,30.9,30.14,North,5,9.0,18.0,46,0.00,,,0.00,meteohub,2014-01-02 03:34:00,
2014-01-01 21:39:00,50.5,30.6,30.14,NNE,23,10.0,25.0,46,0.00,,,0.00,meteohub,2014-01-02 03:39:00,
2014-01-01 21:44:00,50.4,30.9,30.15,NNW,340,14.0,25.0,47,0.00,,,0.00,meteohub,2014-01-02 03:44:00,
2014-01-01 21:49:00,49.8,30.4,30.15,NNE,27,14.0,25.0,47,0.00,,,0.00,meteohub,2014-01-02 03:49:00,
2014-01-01 21:54:00,49.5,31.1,30.15,NE,37,12.0,23.0,49,0.00,,,0.00,meteohub,2014-01-02 03:54:00,
2014-01-01 21:59:00,48.9,31.1,30.16,NE,40,5.0,23.0,50,0.00,,,0.00,meteohub,2014-01-02 03:59:00,
2014-01-01 22:04:00,48.6,30.7,30.17,NNW,340,12.0,22.0,50,0.00,,,0.00,meteohub,2014-01-02 04:04:00,
2014-01-01 22:09:00,48.0,30.2,30.17,North,0,14.0,20.0,50,0.00,,,0.00,meteohub,2014-01-02 04:09:00,
2014-01-01 22:14:00,47.7,30.0,30.18,NW,305,8.0,25.0,50,0.00,,,0.00,meteohub,2014-01-02 04:14:00,
2014-01-01 22:19:00,47.1,29.5,30.19,NW,322,10.0,25.0,50,0.00,,,0.00,meteohub,2014-01-02 04:19:00,
2014-01-01 22:25:00,46.6,29.5,30.19,NE,36,11.0,25.0,51,0.00,,,0.00,meteohub,2014-01-02 04:25:00,
2014-01-01 22:30:00,46.0,29.5,30.19,NNW,345,1.0,24.0,52,0.00,,,0.00,meteohub,2014-01-02 04:30:00,
2014-01-01 22:35:00,45.7,29.5,30.20,NNW,331,5.0,24.0,53,0.00,,,0.00,meteohub,2014-01-02 04:35:00,
2014-01-01 22:40:00,45.1,29.5,30.21,WNW,302,0.0,24.0,54,0.00,,,0.00,meteohub,2014-01-02 04:40:00,
2014-01-01 22:45:00,45.0,29.3,30.21,NNW,333,12.0,16.0,54,0.00,,,0.00,meteohub,2014-01-02 04:45:00,
2014-01-01 22:50:00,44.4,29.3,30.22,NNW,340,5.0,16.0,55,0.00,,,0.00,meteohub,2014-01-02 04:50:00,
2014-01-01 22:55:00,44.2,29.5,30.22,NW,304,9.0,15.0,56,0.00,,,0.00,meteohub,2014-01-02 04:55:00,
2014-01-01 23:00:00,43.9,29.1,30.22,NNE,15,12.0,15.0,56,0.00,,,0.00,meteohub,2014-01-02 05:00:00,
2014-01-01 23:01:00,43.9,29.7,30.22,NNW,342,12.0,14.0,57,0.00,,,0.00,meteohub,2014-01-02 05:01:00,
2014-01-01 23:02:00,43.9,29.7,30.23,NNW,348,11.0,14.0,57,0.00,,,0.00,meteohub,2014-01-02 05:02:00,
2014-01-01 23:07:00,43.3,28.8,30.23,NNW,333,10.0,18.0,56,0.00,,,0.00,meteohub,2014-01-02 05:07:00,
2014-01-01 23:12:00,43.0,28.8,30.24,North,355,11.0,20.0,57,0.00,,,0.00,meteohub,2014-01-02 05:12:00,
2014-01-01 23:17:00,42.4,27.9,30.25,North,350,11.0,25.0,56,0.00,,,0.00,meteohub,2014-01-02 05:17:00,
2014-01-01 23:22:00,41.7,27.1,30.25,WNW,300,11.0,25.0,56,0.00,,,0.00,meteohub,2014-01-02 05:22:00,
2014-01-01 23:27:00,41.2,26.6,30.25,North,5,8.0,25.0,56,0.00,,,0.00,meteohub,2014-01-02 05:27:00,
2014-01-01 23:32:00,40.8,26.8,30.25,North,351,13.0,25.0,57,0.00,,,0.00,meteohub,2014-01-02 05:32:00,
2014-01-01 23:37:00,40.5,26.4,30.25,North,350,14.0,20.0,57,0.00,,,0.00,meteohub,2014-01-02 05:37:00,
2014-01-01 23:42:00,40.3,26.2,30.26,NNW,336,10.0,24.0,57,0.00,,,0.00,meteohub,2014-01-02 05:42:00,
2014-01-01 23:47:00,39.7,25.7,30.26,NNW,344,9.0,24.0,57,0.00,,,0.00,meteohub,2014-01-02 05:47:00,
2014-01-01 23:52:00,39.6,26.1,30.27,North,9,7.0,24.0,58,0.00,,,0.00,meteohub,2014-01-02 05:52:00,
2014-01-01 23:57:00,39.0,25.5,30.27,North,355,10.0,24.0,58,0.00,,,0.00,meteohub,2014-01-02 05:57:00,